Temp
81 81 80 79 79 80 76 77 77 77 76 74 75 74 74 72 70 69 67 67 66 66 67 66 66 66 65 64 65 64 63 62 61 62 63 65 68 67 70 68 69 67 67
81 81 80 80 79 78 79 78 77 77 77 77 75 74 74 73 71 70 69 70 67 66 66 65 66 69 65 65 65 64 63 63 61 60 61 63 64 66 66 66 69 71 67
81 81 80 79 79 78 79 80 77 78 75 75 75 74 74 73 72 72 71 68 68 67 67 66 66 65 67 64 64 66 64 64 62 61 61 63 63 66 65 65 65 65 68
82 81 79 79 79 79 79 79 78 78 75 74 74 74 74 74 73 72 71 69 67 67 67 68 67 66 68 66 66 66 63 62 62 61 60 60 61 63 61 60 61 60 62
81 81 80 80 80 80 79 78 79 78 78 74 74 73 73 73 74 72 71 70 68 67 66 67 67 70 71 68 66 67 64 63 61 60 59 59 59 59 59 60 59 59 59
81 80 81 80 79 79 78 78 77 76 77 74 72 73 71 74 69 68 71 70 69 69 66 66 67 71 70 68 67 67 65 63 61 60 59 58 59 59 59 58 57 55 54
82 81 80 80 78 78 78 77 76 76 74 73 72 72 71 73 66 66 69 71 69 69 68 66 67 73 69 68 65 65 64 64 64 63 60 60 59 59 59 58 57 56 55
81 81 81 79 78 78 77 77 76 77 76 73 72 72 72 73 64 64 67 70 69 68 67 67 67 67 67 66 66 64 65 64 63 63 62 65 61 61 60 60 59 57 55
81 81 80 80 78 77 77 76 77 76 76 74 73 73 72 71 63 62 65 67 68 68 69 68 68 66 64 62 65 63 62 63 64 62 62 62 61 62 62 58 57 54 53
82 82 81 81 79 78 78 77 78 78 76 75 73 73 71 71 60 59 65 69 68 68 65 66 64 66 61 59 63 62 61 63 62 61 60 60 61 61 62 59 58 54 52
85 84 82 81 80 80 79 79 78 77 74 74 72 72 70 68 62 58 59 70 70 66 65 65 66 60 56 55 57 62 60 59 60 57 56 57 57 58 58 60 59 58 54
84 83 81 80 81 80 79 78 76 74 73 71 69 68 68 67 61 56 58 61 63 63 64 65 64 56 53 53 57 57 57 58 56 54 53 53 54 55 57 57 58 61 60
81 80 79 78 79 79 77 75 73 72 71 69 68 67 67 67 63 57 56 56 58 63 66 61 54 52 52 55 56 56 55 55 53 52 51 52 53 54 54 55 55 54 53
80 76 76 76 75 76 75 74 72 70 69 68 67 66 66 67 65 61 58 57 57 60 58 57 56 55 55 57 54 54 53 52 52 52 52 52 52 52 52 51 51 50 48
75 75 73 71 68 60 58 65 68 62 67 67 67 67 66 64 62 58 57 59 60 58 57 57 55 54 53 53 53 53 52 51 52 52 52 52 51 51 51 50 48 47 46
69 68 66 64 62 61 59 56 50 49 52 52 56 62 58 57 50 49 47 48 48 50 57 54 53 53 53 53 52 52 52 54 52 53 53 50 50 49 49 48 47 45 45
67 65 64 63 63 62 61 60 57 54 50 45 46 48 51 51 47 45 45 46 46 52 55 55 54 54 54 54 53 52 53 54 54 52 50 49 49 49 48 47 47 46 47
65 59 64 64 63 63 63 59 59 61 60 54 46 46 45 45 45 44 45 50 52 53 54 54 53 54 53 53 53 52 50 51 50 49 49 52 49 48 47 47 46 45 45
67 65 65 64 63 61 61 62 61 60 58 52 49 48 45 43 44 45 48 55 54 54 52 53 53 52 52 51 50 50 50 50 50 48 47 47 46 46 46 46 46 48 47
65 63 66 67 65 64 63 62 60 58 56 56 56 53 48 51 52 52 54 55 55 54 54 53 53 52 52 51 50 49 49 49 48 46 46 47 46 45 46 46 46 45 45
62 63 63 64 65 66 65 64 62 59 57 54 54 53 49 57 54 54 54 52 54 54 54 54 52 52 51 50 49 49 49 48 47 46 46 45 45 46 45 45 45 46 45
64 63 63 62 62 63 65 67 64 63 60 59 57 53 46 55 55 55 54 55 55 55 55 56 53 53 52 51 50 49 48 48 46 45 45 45 45 45 45 45 45 45 45
62 62 61 60 60 60 61 63 64 62 59 58 57 55 53 54 54 55 56 56 56 55 55 54 55 52 50 51 50 49 47 47 46 46 46 45 44 44 44 44 44 44 44
64 62 62 59 59 60 60 60 60 58 61 59 57 56 56 58 56 57 57 56 56 60 58 60 57 54 51 50 49 48 47 46 45 46 47 45 44 43 44 43 44 45 45
63 62 62 60 60 61 61 62 61 61 61 60 59 57 57 58 57 58 57 58 58 59 61 59 55 54 53 51 49 48 43 40 44 42 44 45 45 44 44 43 43 45 46
63 63 60 58 59 59 60 60 59 59 61 62 58 57 58 59 58 57 56 56 56 58 57 53 54 55 53 50 49 43 37 39 42 40 42 42 42 43 43 44 44 45 45
MSLP
1006.26 1006.93 1007.50 1008.08 1008.82 1009.55 1010.13 1010.57 1011.01 1011.54 1011.98 1012.35 1012.90 1013.56 1013.97 1014.48 1015.00 1015.52 1015.91 1016.29 1016.77 1017.03 1017.32 1017.75 1017.93 1018.03 1018.30 1018.54 1018.49 1018.55 1018.98 1019.10 1019.58 1019.39 1019.05 1018.45 1018.26 1018.24 1018.06 1018.09 1018.15 1018.19 1018.14
1005.17 1006.02 1006.61 1007.25 1008.02 1008.71 1009.12 1009.67 1010.22 1010.60 1011.02 1011.46 1012.16 1012.83 1013.37 1013.95 1014.47 1015.05 1015.57 1015.82 1016.25 1016.79 1017.08 1017.45 1017.69 1017.71 1018.04 1018.21 1018.46 1018.62 1018.74 1018.88 1018.95 1019.32 1019.04 1018.78 1018.54 1018.31 1018.21 1018.25 1017.87 1017.68 1017.82
1004.33 1005.09 1005.77 1006.41 1007.07 1007.52 1007.97 1008.59 1009.28 1009.71 1010.25 1010.83 1011.35 1011.96 1012.64 1013.29 1013.91 1014.38 1014.79 1015.31 1015.76 1016.10 1016.48 1016.97 1017.24 1017.58 1017.75 1017.93 1018.08 1018.44 1018.50 1018.64 1018.81 1019.02 1019.04 1018.74 1018.47 1018.21 1018.08 1017.90 1017.82 1017.61 1017.54
1003.16 1004.01 1004.69 1005.27 1005.73 1006.23 1006.86 1007.58 1008.18 1008.73 1009.48 1010.07 1010.59 1011.19 1011.83 1012.63 1013.17 1013.66 1014.27 1014.82 1015.22 1015.55 1015.97 1016.32 1016.59 1016.91 1017.18 1017.46 1017.70 1017.97 1018.32 1018.62 1018.81 1018.86 1018.85 1018.74 1018.65 1018.23 1018.22 1018.36 1018.16 1017.85 1017.60
1001.96 1002.78 1003.20 1004.04 1004.62 1005.39 1006.07 1006.59 1007.23 1007.88 1008.44 1009.28 1010.02 1010.68 1011.38 1012.05 1012.48 1013.06 1013.73 1014.19 1014.63 1015.04 1015.34 1015.75 1016.03 1016.23 1016.46 1016.72 1017.17 1017.49 1017.95 1018.21 1018.38 1018.68 1018.83 1018.78 1018.64 1018.42 1018.37 1018.13 1018.17 1018.08 1017.77
1001.18 1001.44 1002.18 1003.15 1003.86 1004.41 1005.13 1005.72 1006.47 1007.12 1007.67 1008.47 1009.22 1009.99 1010.82 1011.31 1011.66 1012.28 1012.85 1013.44 1013.85 1014.35 1014.91 1015.04 1015.28 1015.63 1015.82 1016.03 1016.53 1016.84 1017.22 1017.61 1017.96 1018.36 1018.40 1018.37 1018.10 1017.96 1017.84 1017.85 1018.00 1018.28 1018.25
999.64 1000.49 1001.38 1002.05 1002.87 1003.52 1004.27 1005.05 1005.62 1006.27 1007.12 1007.78 1008.58 1009.34 1010.00 1010.37 1010.72 1011.25 1011.89 1012.66 1013.23 1013.69 1014.08 1014.49 1014.85 1015.07 1015.28 1015.48 1015.88 1016.22 1016.76 1017.00 1017.16 1017.25 1017.21 1017.24 1017.31 1016.99 1017.23 1017.21 1017.30 1017.67 1017.63
998.61 999.58 1000.38 1001.11 1001.69 1002.75 1003.55 1004.07 1004.75 1005.46 1006.12 1007.01 1007.80 1008.31 1008.87 1009.28 1009.79 1010.61 1011.35 1012.06 1012.75 1013.12 1013.51 1013.90 1014.39 1014.79 1015.05 1015.56 1015.86 1015.91 1016.12 1016.02 1016.08 1016.25 1016.25 1015.95 1015.97 1016.17 1016.62 1016.61 1016.67 1016.85 1016.99
997.74 998.45 999.11 999.91 1000.66 1001.57 1002.32 1002.99 1003.79 1004.62 1005.37 1006.00 1006.59 1007.28 1007.97 1008.72 1009.30 1010.04 1011.08 1011.96 1012.36 1012.69 1013.10 1013.48 1013.82 1014.06 1014.40 1014.84 1015.21 1015.75 1015.92 1015.63 1015.46 1015.65 1015.58 1015.69 1015.86 1015.79 1015.87 1016.46 1016.60 1016.83 1016.79
996.53 996.92 997.69 998.74 999.69 1000.24 1001.15 1002.20 1002.88 1003.63 1004.28 1005.08 1005.79 1006.35 1006.96 1007.95 1008.72 1009.62 1010.54 1011.26 1012.07 1012.52 1012.66 1012.87 1013.12 1013.56 1013.99 1014.44 1014.93 1015.43 1015.58 1015.38 1015.62 1015.60 1015.82 1015.88 1015.78 1015.71 1015.56 1015.88 1016.02 1016.32 1016.32
994.82 995.50 996.64 997.52 998.38 999.30 1000.38 1001.46 1002.28 1002.98 1003.72 1004.45 1005.19 1006.12 1007.05 1007.73 1008.87 1009.38 1010.18 1010.60 1011.13 1011.87 1012.25 1012.65 1012.86 1013.16 1013.56 1013.90 1014.19 1014.79 1015.29 1015.61 1015.68 1015.66 1015.65 1015.63 1015.84 1015.79 1015.55 1015.24 1015.24 1015.45 1015.56
994.11 995.35 996.07 996.78 997.47 998.61 999.55 1000.59 1001.64 1002.56 1003.36 1004.27 1005.11 1006.48 1007.14 1008.00 1008.46 1009.45 1010.23 1010.70 1011.06 1011.70 1012.20 1012.27 1012.65 1012.89 1013.24 1013.55 1014.14 1014.64 1014.97 1015.36 1015.70 1016.08 1016.11 1016.13 1016.04 1015.86 1015.61 1015.35 1015.00 1014.81 1014.79
993.41 994.55 995.17 996.17 996.55 997.55 998.73 999.93 1000.99 1002.08 1003.01 1003.89 1004.46 1005.13 1007.45 1008.10 1008.60 1008.86 1009.72 1010.66 1011.08 1011.48 1011.96 1012.14 1012.57 1012.83 1013.18 1013.71 1014.12 1014.36 1014.87 1015.36 1016.00 1016.27 1016.34 1016.19 1015.87 1015.68 1015.56 1015.34 1014.98 1014.82 1014.74
992.62 993.68 994.79 995.58 996.20 997.18 998.48 999.40 1000.39 1001.51 1002.36 1002.40 1004.12 1005.22 1007.23 1007.91 1008.46 1009.22 1010.05 1010.81 1011.31 1011.46 1012.02 1012.37 1012.69 1013.14 1013.46 1013.85 1014.32 1014.55 1014.72 1014.96 1015.48 1015.64 1016.08 1015.95 1015.74 1015.66 1015.54 1015.35 1015.29 1015.08 1015.14
993.22 993.38 994.43 996.15 997.22 998.33 999.34 1000.01 1000.56 1000.93 1000.09 1001.57 1002.19 1004.46 1006.03 1007.11 1007.94 1009.09 1009.32 1010.13 1010.82 1011.03 1012.12 1012.53 1013.08 1013.56 1013.79 1014.06 1014.29 1014.44 1014.68 1014.98 1015.42 1015.50 1015.66 1015.68 1015.73 1015.69 1015.59 1015.33 1015.40 1015.35 1015.41
993.45 994.98 995.31 995.99 997.23 999.19 999.31 1001.02 1002.25 1001.10 1000.61 1001.19 1002.14 1004.16 1005.14 1005.40 1006.89 1008.69 1008.97 1009.90 1010.34 1011.17 1012.04 1012.56 1013.25 1013.41 1013.66 1013.99 1014.26 1014.46 1014.67 1014.98 1015.14 1015.09 1015.11 1015.36 1015.59 1015.65 1015.58 1015.43 1015.31 1015.41 1015.39
994.44 995.45 996.61 997.19 996.98 999.29 1000.26 1000.57 1002.82 1003.36 1005.61 1004.43 1004.38 1004.86 1005.21 1005.85 1007.42 1008.26 1008.57 1009.72 1010.52 1011.37 1011.77 1012.46 1012.84 1013.13 1013.36 1013.64 1014.00 1014.30 1014.51 1014.34 1014.28 1014.66 1015.05 1015.15 1015.28 1015.39 1015.50 1015.36 1015.23 1015.15 1014.96
995.81 996.94 996.90 997.76 997.30 999.31 999.87 998.90 1003.08 1006.30 1006.08 1006.16 1006.14 1005.73 1005.92 1006.35 1007.51 1007.66 1008.65 1010.27 1011.07 1011.32 1011.81 1012.28 1012.60 1012.79 1013.12 1013.43 1013.63 1013.70 1014.08 1014.27 1014.59 1014.81 1014.89 1014.84 1015.03 1015.27 1015.28 1015.23 1015.09 1015.10 1014.89
995.65 997.92 998.73 999.44 999.59 999.93 999.98 1000.83 1002.81 1004.25 1004.91 1005.09 1006.50 1007.02 1007.61 1007.46 1007.96 1008.28 1009.10 1010.14 1010.53 1011.24 1011.68 1011.86 1012.16 1012.54 1012.91 1013.09 1013.48 1013.75 1013.74 1014.30 1014.55 1014.84 1014.92 1014.96 1014.96 1015.03 1015.10 1015.07 1014.90 1014.70 1014.61
997.64 998.22 999.24 999.69 999.77 1000.07 1000.87 1001.44 1002.22 1004.28 1004.85 1006.18 1006.91 1006.66 1007.79 1008.57 1008.66 1009.11 1009.48 1010.06 1010.38 1010.71 1011.31 1011.60 1011.90 1012.20 1012.64 1012.92 1013.38 1013.70 1013.87 1014.11 1014.64 1014.83 1014.76 1014.62 1014.59 1014.73 1014.88 1014.83 1014.77 1014.76 1014.41
998.42 998.55 998.77 999.17 999.70 1000.27 1000.93 1001.73 1002.99 1004.06 1005.36 1006.36 1005.95 1006.62 1007.23 1007.41 1008.14 1008.81 1009.39 1010.15 1010.38 1010.58 1011.06 1011.58 1011.99 1012.19 1012.45 1012.87 1013.24 1013.40 1013.85 1013.92 1014.11 1014.35 1014.46 1014.49 1014.51 1014.60 1014.56 1014.60 1014.58 1014.37 1014.08
999.16 999.28 999.63 1000.06 1000.69 1001.11 1001.34 1002.07 1002.42 1004.06 1004.72 1005.48 1006.19 1007.24 1007.26 1007.57 1008.04 1008.75 1009.16 1009.71 1010.20 1010.12 1010.47 1010.91 1011.63 1011.64 1011.81 1012.33 1012.81 1013.04 1013.51 1013.71 1013.88 1014.11 1014.42 1014.43 1014.36 1014.38 1014.42 1014.49 1014.43 1014.16 1013.83
1000.17 1000.21 1000.51 1000.70 1000.91 1001.53 1001.85 1001.80 1002.48 1003.61 1004.76 1005.57 1006.16 1006.86 1007.27 1007.62 1008.22 1008.68 1008.65 1009.01 1009.57 1009.77 1010.05 1010.54 1010.92 1011.33 1011.46 1011.42 1011.65 1012.28 1012.95 1013.30 1013.41 1013.66 1014.01 1014.12 1014.22 1014.30 1014.31 1014.43 1014.36 1014.08 1013.72
1001.39 1001.12 1001.01 1001.41 1001.29 1001.39 1001.85 1002.80 1003.13 1003.54 1004.02 1004.96 1005.71 1006.35 1006.88 1007.39 1007.71 1008.01 1008.11 1008.59 1009.16 1009.44 1009.61 1010.09 1010.38 1011.02 1011.50 1011.13 1011.56 1012.03 1012.31 1012.68 1013.01 1013.30 1013.47 1013.72 1013.92 1014.04 1014.06 1014.17 1014.12 1013.94 1013.57
1001.98 1001.88 1001.53 1001.85 1001.97 1002.00 1001.97 1002.56 1003.14 1003.63 1004.34 1004.72 1005.49 1006.06 1006.31 1006.61 1007.18 1007.40 1007.49 1007.91 1008.33 1008.92 1009.33 1009.36 1009.69 1010.36 1010.95 1010.86 1011.60 1011.86 1012.14 1012.52 1012.87 1013.12 1013.32 1013.43 1013.60 1013.72 1013.80 1013.88 1013.88 1013.72 1013.26
1002.08 1002.32 1002.59 1002.52 1002.43 1002.24 1002.75 1003.46 1003.61 1003.48 1003.95 1004.45 1004.96 1005.32 1005.63 1006.15 1006.54 1006.86 1007.24 1007.59 1007.97 1008.30 1008.71 1008.90 1009.22 1010.07 1010.25 1010.75 1011.54 1011.75 1012.10 1012.37 1012.64 1012.78 1012.97 1013.26 1013.41 1013.52 1013.56 1013.60 1013.49 1013.37 1013.08
Wind_Speed
20 18 17 15 15 14 11 11 12 12 12 12 13 12 12 10 9 9 7 7 7 6 5 6 7 5 3 2 1 2 1 3 3 3 3 2 2 2 4 3 5 5 5
20 19 19 16 15 15 16 13 12 13 13 13 13 14 13 12 10 11 11 9 8 8 7 6 7 3 5 5 3 3 2 2 4 4 2 2 4 3 4 5 5 4 3
20 20 18 17 16 18 17 16 13 13 11 12 13 15 14 13 12 12 11 9 9 8 8 7 7 6 5 4 4 4 3 2 2 2 3 2 3 2 2 2 3 3 2
21 21 20 19 19 18 17 16 15 15 12 12 12 13 14 13 13 13 11 10 8 8 7 8 8 7 7 7 5 5 4 3 2 2 2 3 2 2 0 1 3 2 3
22 22 22 20 19 17 16 16 15 15 14 11 12 11 10 11 10 13 12 12 10 8 7 7 7 9 11 9 5 5 5 4 4 3 3 1 3 2 3 2 2 2 3
21 23 20 19 18 18 17 16 15 13 14 10 12 12 11 10 14 16 15 11 12 11 9 7 7 11 12 13 11 8 8 6 4 3 3 4 5 4 4 4 3 2 3
23 20 20 19 19 19 17 15 15 16 11 11 11 12 13 13 17 20 19 10 10 10 11 8 7 7 9 6 7 6 7 8 8 5 5 6 5 6 4 3 5 4 5
22 20 19 19 19 17 17 17 15 13 15 12 12 14 13 13 18 19 20 10 9 9 8 8 7 6 6 5 5 6 7 7 7 5 8 9 7 5 5 4 3 3 2
20 20 20 20 19 18 19 17 15 14 13 13 13 14 14 11 17 16 15 7 7 8 8 7 8 7 8 9 6 6 6 7 5 11 10 7 7 7 7 2 4 2 3
20 22 20 19 19 19 18 17 14 14 13 11 12 13 14 11 15 17 14 8 8 6 6 6 10 7 10 9 8 6 7 5 1 0 2 3 3 5 6 6 4 5 2
22 20 18 19 20 18 16 12 14 14 12 12 11 9 10 10 10 16 15 9 9 7 5 4 4 8 8 11 10 6 4 1 2 1 1 2 4 5 4 3 4 4 3
17 15 16 16 14 13 17 14 14 13 12 10 10 6 5 7 11 11 14 8 7 5 4 3 4 6 10 8 5 4 7 5 2 0 1 2 2 2 3 4 4 3 3
15 16 15 15 16 16 17 15 13 12 10 10 10 11 6 5 6 14 13 11 8 5 3 3 7 7 8 6 6 8 7 3 3 2 2 2 2 3 4 3 2 3 5
17 16 14 15 14 14 11 12 12 11 11 12 10 8 6 6 5 4 4 5 5 5 6 5 6 5 4 5 3 4 4 4 4 4 4 3 2 1 2 1 2 3 2
12 15 15 11 11 9 7 5 8 2 11 12 11 11 11 8 6 9 10 7 7 7 6 3 2 2 2 2 2 4 4 4 4 3 3 2 2 1 2 1 2 2 1
15 10 7 8 11 8 10 11 20 21 10 12 15 11 3 12 18 15 13 11 13 15 3 3 3 3 4 4 4 3 3 5 3 4 3 3 2 2 2 2 1 1 3
11 10 10 11 7 11 10 14 9 14 9 16 12 11 10 12 14 13 15 14 14 8 3 3 4 4 4 4 4 4 3 3 4 3 3 3 2 1 2 2 2 2 3
12 5 8 9 10 10 10 19 10 8 5 3 12 8 12 17 15 17 18 12 5 2 3 3 4 4 4 4 4 4 4 4 3 2 2 1 1 1 1 2 2 2 3
14 5 4 5 5 9 11 12 8 8 5 7 4 8 7 13 13 13 8 4 4 4 3 4 4 5 4 5 5 4 4 4 3 2 2 2 2 2 1 2 3 5 4
7 15 9 8 8 9 8 7 8 6 6 5 5 6 5 3 3 3 3 3 4 3 5 5 5 5 5 6 5 5 4 4 3 2 2 3 2 2 0 2 3 3 4
4 4 7 6 7 8 8 8 7 7 6 4 5 6 10 8 7 5 5 4 4 4 5 6 5 5 5 5 4 4 3 3 2 3 3 2 2 1 2 2 3 4 3
4 5 5 5 5 5 7 9 10 8 7 7 5 6 10 3 4 5 5 5 5 5 5 7 6 6 6 6 6 5 4 3 4 4 3 3 2 2 2 2 4 3 4
5 5 5 4 5 6 3 4 6 8 6 5 6 6 7 5 5 5 5 5 5 5 6 6 6 5 5 6 6 6 6 6 6 6 5 3 1 1 2 2 3 3 4
5 4 5 3 4 5 6 5 4 6 9 8 6 6 7 8 6 6 5 5 5 6 7 6 6 8 7 6 5 5 5 5 5 5 7 4 3 0 1 2 2 4 5
1 2 3 3 4 5 5 6 5 5 3 5 7 6 7 7 6 5 5 6 8 9 10 9 5 8 10 10 8 8 8 10 7 7 4 4 4 2 1 2 2 4 3
5 4 4 3 2 4 5 4 4 4 6 6 5 6 7 7 7 5 5 6 5 6 6 5 8 11 10 8 9 12 11 11 9 8 5 4 4 3 1 3 5 2 3
Wind_Direction
190 193 195 198 199 201 196 192 187 188 192 187 187 188 190 184 179 180 188 181 188 202 200 207 229 199 206 224 159 99 143 136 160 299 257 290 322 237 274 238 243 244 248
189 192 197 195 192 200 205 202 189 194 195 191 187 191 192 191 182 185 192 196 189 195 204 202 228 231 212 201 212 209 195 190 147 214 270 276 226 256 255 287 287 268 259
188 191 195 197 195 201 204 202 192 200 190 188 186 190 192 189 187 195 194 192 193 194 192 199 210 214 223 225 201 209 197 217 198 179 259 260 259 261 288 251 241 265 269
190 192 195 197 201 203 203 201 197 199 190 192 189 189 192 188 191 194 191 195 190 193 192 205 202 205 212 218 215 214 201 211 218 232 253 265 271 308 60 270 316 329 303
190 195 198 198 201 202 202 201 199 201 203 189 186 188 183 185 191 190 192 198 196 196 194 201 210 215 209 205 189 217 211 223 229 224 262 272 252 263 220 218 233 294 293
194 202 194 197 198 201 200 198 196 195 200 182 184 180 176 192 190 186 189 194 198 199 199 210 219 218 223 214 210 195 201 205 228 194 223 226 250 214 206 200 197 200 295
198 197 198 194 198 200 197 194 196 196 179 181 175 176 188 198 185 188 191 190 194 194 199 199 220 228 211 201 213 213 228 236 230 203 225 219 237 213 201 209 204 198 217
197 197 196 196 196 195 195 198 192 187 189 179 181 188 191 198 184 184 189 186 188 204 199 197 204 217 205 197 216 213 236 244 229 213 217 241 219 244 207 214 230 222 295
196 198 197 196 193 190 197 195 188 181 187 187 187 186 190 191 183 175 168 171 190 199 204 195 205 209 207 200 188 209 242 247 239 236 240 277 275 258 230 157 258 181 262
199 202 196 193 192 192 191 191 186 185 187 183 184 185 187 175 168 161 168 174 193 201 192 209 206 204 203 219 200 212 238 263 300 302 27 334 315 285 279 205 208 217 206
204 200 191 190 190 189 183 178 181 184 173 178 170 160 160 159 163 167 175 177 192 196 191 209 221 217 210 213 201 199 209 128 221 158 296 322 323 306 293 256 208 186 192
196 195 194 192 184 177 174 174 173 169 170 157 139 122 132 158 152 169 183 186 144 159 196 194 234 228 211 204 181 151 170 189 145 197 308 297 291 288 297 309 312 267 234
177 184 178 177 172 172 172 165 159 165 152 164 154 139 167 162 157 171 185 180 149 135 181 154 121 137 142 138 179 177 168 146 169 197 244 263 217 258 301 308 294 260 267
174 164 163 162 157 158 161 163 156 158 164 155 149 132 153 152 144 129 170 130 147 102 120 97 88 106 130 122 122 167 180 180 183 185 211 233 280 257 306 299 307 321 344
144 148 138 132 125 104 79 101 149 121 171 150 142 150 154 160 173 178 161 162 176 153 123 101 103 109 136 163 203 204 199 197 204 204 214 222 230 286 273 301 272 305 247
130 130 109 119 121 107 101 78 27 67 5 103 124 148 134 135 141 167 142 140 138 137 109 131 175 181 191 209 222 236 222 230 231 205 201 171 211 226 266 293 241 240 269
123 113 103 112 102 121 111 82 73 28 55 55 73 107 136 135 141 139 127 130 138 135 125 160 182 185 216 219 214 198 221 222 181 164 158 165 176 242 246 272 311 275 305
84 44 111 108 140 138 137 112 137 179 154 82 29 49 116 121 125 126 118 111 119 74 153 169 196 194 218 201 175 150 137 121 105 139 165 166 132 225 283 316 316 293 292
104 115 102 111 111 121 113 116 131 122 121 111 118 54 58 98 107 106 115 122 139 160 182 191 171 148 141 124 122 128 127 143 170 189 190 175 176 147 295 284 312 312 286
97 117 129 134 125 102 105 109 104 110 119 134 156 120 122 100 107 128 137 140 161 161 160 143 144 137 137 139 148 153 152 164 189 217 211 170 136 140 221 315 325 313 310
80 77 95 97 122 126 129 132 134 137 144 187 137 155 176 151 150 163 167 174 175 153 148 147 149 149 148 147 149 152 162 164 187 176 150 150 172 83 354 313 308 307 303
76 100 99 102 86 100 145 158 144 162 159 157 152 158 149 110 144 170 180 172 194 167 165 155 167 166 164 164 168 159 152 159 153 145 161 170 119 62 24 357 327 321 323
42 75 71 80 97 95 115 132 129 146 146 154 154 152 168 174 176 195 189 177 177 174 168 171 165 159 169 160 155 154 158 175 176 162 161 156 156 51 32 347 317 318 323
13 35 96 104 111 103 101 118 137 163 153 152 156 160 173 191 192 192 194 181 174 187 178 178 158 163 185 160 152 165 165 155 157 173 159 163 179 139 355 323 311 299 298
355 342 49 128 137 135 120 113 133 127 157 159 168 176 176 179 190 198 191 191 178 178 188 185 162 164 174 163 168 160 153 150 160 169 165 161 169 198 249 282 299 298 304
176 205 193 198 140 120 127 162 180 154 164 164 174 178 179 182 193 188 188 181 182 184 173 153 157 171 171 153 164 159 162 176 174 184 164 162 173 195 230 296 290 276 333